Location: Melbourne
(37.8170°S, 144.9670°E)
Time: 11:13:25
(UTC+10:00)

ISS - Visible Passes

Search period start: 25 May 2017 00:00
Search period end: 04 June 2017 00:00
Orbit: 402 x 409 km, 51.6° (Epoch: 25 May)

Date Brightness Start Highest point End Pass type
(mag) Time Alt. Az. Time Alt. Az. Time Alt. Az.
29 May -0.7 06:18:02 10° N 06:20:25 19° NE 06:22:49 10° E visible
31 May -2.9 06:09:20 10° NNW 06:12:32 49° NE 06:15:46 10° ESE visible
01 Jun -1.6 05:19:47 22° NNE 05:20:33 24° NE 05:23:18 10° ESE visible
01 Jun -3.0 06:53:55 10° W 06:56:56 32° SSW 07:00:00 10° SE visible
02 Jun -3.8 06:03:43 37° W 06:04:45 60° SW 06:08:03 10° SE visible
03 Jun -1.6 05:14:31 23° ESE 05:14:31 23° ESE 05:15:57 10° SE visible
03 Jun -2.1 06:47:14 11° WSW 06:49:25 18° SSW 06:51:48 10° SSE visible
